START_TIME,STEP,MOV.,M34,t_acc.,L5,t_acc.,L18,t_acc.,L14,t_acc.
1980-11-14 12:00:13.270 ,7,0,0.,12.0,3.,12.0,0.,12.0,0.,12.0
1980-11-14 12:00:25.270 ,7,0,0.,12.0,5.,12.0,0.,12.0,0.,12.0
1980-11-14 12:00:37.270 ,7,1,0.,12.0,3.,12.0,0.,12.0,0.,12.0
1980-11-14 12:00:49.270 ,7,1,0.,12.0,9.,12.0,0.,12.0,0.,12.0
1980-11-14 12:01:01.270 ,7,0,0.,12.0,3.,12.0,0.,12.0,0.,12.0
1980-11-14 12:01:13.270 ,7,0,0.,12.0,5.,12.0,0.,12.0,0.,12.0
1980-11-14 12:01:25.270 ,6,1,0.,12.0,5.,12.0,0.,12.0,0.,12.0
1980-11-14 12:01:37.270 ,6,1,0.,12.0,1.,12.0,0.,12.0,0.,12.0
1980-11-14 12:01:49.270 ,6,0,0.,12.0,0.,12.0,0.,12.0,0.,12.0
1980-11-14 12:02:01.270 ,6,0,0.,12.0,0.,12.0,0.,12.0,0.,12.0
1980-11-14 12:02:13.270 ,5,1,0.,12.0,0.,12.0,0.,12.0,0.,12.0
1980-11-14 12:02:25.270 ,5,1,0.,12.0,0.,12.0,0.,12.0,0.,12.0
1980-11-14 12:02:37.270 ,5,0,0.,12.0,0.,12.0,0.,12.0,0.,12.0
1980-11-14 12:02:49.270 ,5,0,0.,12.0,0.,12.0,0.,12.0,0.,12.0
1980-11-14 12:03:01.270 ,4,1,0.,12.0,0.,12.0,0.,12.0,0.,12.0
1980-11-14 12:03:13.270 ,4,1,0.,12.0,0.,12.0,0.,12.0,0.,12.0
1980-11-14 12:03:25.270 ,4,0,0.,12.0,0.,12.0,0.,12.0,0.,12.0
1980-11-14 12:03:37.270 ,4,0,0.,12.0,0.,12.0,0.,12.0,0.,12.0
1980-11-14 12:03:49.270 ,3,1,0.,12.0,0.,12.0,0.,12.0,0.,12.0
1980-11-14 12:04:01.270 ,3,1,0.,12.0,0.,12.0,0.,12.0,0.,12.0
1980-11-14 12:04:13.270 ,3,0,0.,12.0,0.,12.0,0.,12.0,0.,12.0
1980-11-14 12:04:25.270 ,3,0,0.,12.0,0.,12.0,0.,12.0,0.,12.0
1980-11-14 12:04:37.270 ,2,1,0.,12.0,0.,12.0,0.,12.0,0.,12.0
1980-11-14 12:04:49.270 ,2,1,0.,12.0,0.,12.0,0.,12.0,0.,12.0
1980-11-14 12:05:01.270 ,2,0,0.,12.0,0.,12.0,0.,12.0,0.,12.0
1980-11-14 12:05:13.270 ,2,0,0.,12.0,0.,12.0,0.,12.0,0.,12.0
1980-11-14 12:05:25.270 ,1,1,0.,12.0,0.,12.0,0.,12.0,0.,12.0
1980-11-14 12:05:37.270 ,1,1,0.,12.0,0.,12.0,0.,12.0,0.,12.0
1980-11-14 12:05:49.270 ,1,0,0.,12.0,0.,12.0,0.,12.0,0.,12.0
1980-11-14 12:06:01.270 ,1,0,0.,12.0,0.,12.0,0.,12.0,0.,12.0
1980-11-14 12:06:13.270 ,0,1,0.,12.0,0.,12.0,0.,12.0,0.,12.0
1980-11-14 12:06:25.270 ,0,1,0.,12.0,0.,12.0,0.,12.0,0.,12.0
1980-11-14 12:06:37.270 ,0,0,0.,12.0,0.,12.0,0.,12.0,0.,12.0
1980-11-14 12:06:49.270 ,0,0,0.,12.0,0.,12.0,0.,12.0,0.,12.0
1980-11-14 12:07:01.270 ,0,1,0.,12.0,0.,12.0,0.,12.0,0.,12.0
1980-11-14 12:07:13.270 ,0,1,0.,12.0,0.,12.0,0.,12.0,0.,12.0
1980-11-14 12:07:25.270 ,0,0,0.,12.0,0.,12.0,0.,12.0,0.,12.0
1980-11-14 12:07:37.270 ,0,0,0.,12.0,0.,12.0,0.,12.0,0.,12.0
1980-11-14 12:07:49.270 ,1,1,0.,12.0,0.,12.0,0.,12.0,0.,12.0
1980-11-14 12:08:01.270 ,1,1,0.,12.0,0.,12.0,0.,12.0,0.,12.0
1980-11-14 12:08:13.270 ,1,0,0.,12.0,0.,12.0,0.,12.0,0.,12.0
1980-11-14 12:08:25.270 ,1,0,0.,12.0,0.,12.0,0.,12.0,0.,12.0
1980-11-14 12:08:37.270 ,2,1,0.,12.0,0.,12.0,0.,12.0,0.,12.0
1980-11-14 12:08:49.270 ,2,1,0.,12.0,0.,12.0,0.,12.0,0.,12.0
1980-11-14 12:09:01.270 ,2,0,0.,12.0,0.,12.0,0.,12.0,0.,12.0
1980-11-14 12:09:13.270 ,2,0,0.,12.0,0.,12.0,0.,12.0,0.,12.0
1980-11-14 12:09:25.270 ,3,1,0.,12.0,0.,12.0,0.,12.0,0.,12.0
1980-11-14 12:09:37.270 ,3,1,0.,12.0,0.,12.0,0.,12.0,0.,12.0
1980-11-14 12:09:49.270 ,3,0,0.,12.0,0.,12.0,0.,12.0,0.,12.0
1980-11-14 12:10:01.270 ,3,0,0.,12.0,0.,12.0,0.,12.0,0.,12.0
1980-11-14 12:10:13.270 ,4,1,0.,12.0,0.,12.0,0.,12.0,0.,12.0
1980-11-14 12:10:25.270 ,4,1,0.,12.0,0.,12.0,0.,12.0,0.,12.0
1980-11-14 12:10:37.270 ,4,0,0.,12.0,0.,12.0,0.,12.0,0.,12.0
1980-11-14 12:10:49.270 ,4,0,0.,12.0,0.,12.0,0.,12.0,0.,12.0
1980-11-14 12:11:01.270 ,5,1,0.,12.0,0.,12.0,0.,12.0,0.,12.0
1980-11-14 12:11:13.270 ,5,1,0.,12.0,0.,12.0,0.,12.0,0.,12.0
1980-11-14 12:11:25.270 ,5,0,0.,12.0,0.,12.0,0.,12.0,0.,12.0
1980-11-14 12:11:37.270 ,5,0,0.,12.0,0.,12.0,0.,12.0,0.,12.0
1980-11-14 12:11:49.270 ,6,1,0.,12.0,0.,12.0,0.,12.0,0.,12.0
1980-11-14 12:12:01.270 ,6,1,0.,12.0,0.,12.0,0.,12.0,0.,12.0
1980-11-14 12:12:13.270 ,6,0,0.,12.0,0.,12.0,0.,12.0,0.,12.0
1980-11-14 12:12:25.270 ,6,0,0.,12.0,0.,12.0,0.,12.0,0.,12.0
1980-11-14 12:12:37.270 ,7,1,0.,12.0,0.,12.0,0.,12.0,0.,12.0
1980-11-14 12:12:49.270 ,7,1,0.,12.0,2.,12.0,0.,12.0,0.,12.0
1980-11-14 12:13:01.270 ,7,0,0.,12.0,3.,12.0,0.,12.0,0.,12.0
1980-11-14 12:13:13.270 ,7,0,0.,12.0,5.,12.0,0.,12.0,0.,12.0
1980-11-14 12:13:25.270 ,7,1,0.,12.0,6.,12.0,0.,12.0,0.,12.0
1980-11-14 12:13:37.270 ,7,1,0.,12.0,5.,12.0,0.,12.0,0.,12.0
1980-11-14 12:13:49.270 ,7,0,0.,12.0,4.,12.0,0.,12.0,0.,12.0
1980-11-14 12:14:01.270 ,7,0,0.,12.0,4.,12.0,0.,12.0,0.,12.0
1980-11-14 12:14:13.270 ,6,1,0.,12.0,5.,12.0,0.,12.0,0.,12.0
1980-11-14 12:14:25.270 ,6,1,0.,12.0,1.,12.0,0.,12.0,0.,12.0
1980-11-14 12:14:37.270 ,6,0,0.,12.0,0.,12.0,0.,12.0,0.,12.0
1980-11-14 12:14:49.270 ,6,0,0.,12.0,0.,12.0,0.,12.0,0.,12.0
1980-11-14 12:15:01.270 ,5,1,0.,12.0,0.,12.0,0.,12.0,0.,12.0
1980-11-14 12:15:13.270 ,5,1,0.,12.0,0.,12.0,0.,12.0,0.,12.0
1980-11-14 12:15:25.270 ,5,0,0.,12.0,0.,12.0,0.,12.0,0.,12.0
1980-11-14 12:15:37.270 ,5,0,0.,12.0,0.,12.0,0.,12.0,0.,12.0
1980-11-14 12:15:49.270 ,4,1,0.,12.0,0.,12.0,0.,12.0,0.,12.0
1980-11-14 12:16:01.270 ,4,1,0.,12.0,0.,12.0,0.,12.0,0.,12.0
1980-11-14 12:16:13.270 ,4,0,0.,12.0,0.,12.0,0.,12.0,0.,12.0
1980-11-14 12:16:25.270 ,4,0,0.,12.0,0.,12.0,0.,12.0,0.,12.0
1980-11-14 12:16:37.270 ,3,1,0.,12.0,0.,12.0,0.,12.0,0.,12.0
1980-11-14 12:16:49.270 ,3,1,0.,12.0,0.,12.0,0.,12.0,0.,12.0
1980-11-14 12:17:01.270 ,3,0,0.,12.0,0.,12.0,0.,12.0,0.,12.0
1980-11-14 12:17:13.270 ,3,0,0.,12.0,0.,12.0,0.,12.0,0.,12.0
1980-11-14 12:17:25.270 ,2,1,0.,12.0,0.,12.0,0.,12.0,0.,12.0
1980-11-14 12:17:37.270 ,2,1,0.,12.0,0.,12.0,0.,12.0,0.,12.0
1980-11-14 12:17:49.270 ,2,0,0.,12.0,0.,12.0,0.,12.0,0.,12.0
1980-11-14 12:18:01.270 ,2,0,0.,12.0,0.,12.0,0.,12.0,0.,12.0
1980-11-14 12:18:13.270 ,1,1,0.,12.0,0.,12.0,0.,12.0,0.,12.0
1980-11-14 12:18:25.270 ,1,1,0.,12.0,0.,12.0,0.,12.0,0.,12.0
1980-11-14 12:18:37.270 ,1,0,0.,12.0,0.,12.0,0.,12.0,0.,12.0
1980-11-14 12:18:49.270 ,1,0,0.,12.0,0.,12.0,0.,12.0,0.,12.0
1980-11-14 12:19:01.270 ,0,1,0.,12.0,0.,12.0,0.,12.0,0.,12.0
1980-11-14 12:19:13.270 ,0,1,0.,12.0,0.,12.0,0.,12.0,0.,12.0
1980-11-14 12:19:25.270 ,0,0,0.,12.0,0.,12.0,0.,12.0,0.,12.0
1980-11-14 12:19:37.270 ,0,0,0.,12.0,0.,12.0,0.,12.0,0.,12.0
1980-11-14 12:19:49.270 ,0,1,0.,12.0,0.,12.0,0.,12.0,0.,12.0
1980-11-14 12:20:01.270 ,0,1,0.,12.0,0.,12.0,0.,12.0,0.,12.0
1980-11-14 12:20:13.270 ,0,0,0.,12.0,0.,12.0,0.,12.0,0.,12.0
1980-11-14 12:20:25.270 ,0,0,0.,12.0,0.,12.0,0.,12.0,0.,12.0
1980-11-14 12:20:37.270 ,1,1,0.,12.0,0.,12.0,0.,12.0,0.,12.0
1980-11-14 12:20:49.270 ,1,1,0.,12.0,0.,12.0,0.,12.0,0.,12.0
1980-11-14 12:21:01.270 ,1,0,0.,12.0,0.,12.0,0.,12.0,0.,12.0
1980-11-14 12:21:13.270 ,1,0,0.,12.0,0.,12.0,0.,12.0,0.,12.0
1980-11-14 12:21:25.270 ,2,1,0.,12.0,0.,12.0,0.,12.0,0.,12.0
1980-11-14 12:21:37.270 ,2,1,0.,12.0,0.,12.0,0.,12.0,0.,12.0
1980-11-14 12:21:49.270 ,2,0,0.,12.0,0.,12.0,0.,12.0,0.,12.0
1980-11-14 12:22:01.270 ,2,0,0.,12.0,0.,12.0,0.,12.0,0.,12.0
1980-11-14 12:22:13.270 ,3,1,0.,12.0,0.,12.0,0.,12.0,0.,12.0
1980-11-14 12:22:25.270 ,3,1,0.,12.0,0.,12.0,0.,12.0,0.,12.0
1980-11-14 12:22:37.270 ,3,0,0.,12.0,0.,12.0,0.,12.0,0.,12.0
1980-11-14 12:22:49.270 ,3,0,0.,12.0,0.,12.0,0.,12.0,0.,12.0
1980-11-14 12:23:01.270 ,4,1,0.,12.0,0.,12.0,0.,12.0,0.,12.0
1980-11-14 12:23:13.270 ,4,1,0.,12.0,0.,12.0,0.,12.0,0.,12.0
1980-11-14 12:23:25.270 ,4,0,0.,12.0,0.,12.0,0.,12.0,0.,12.0
1980-11-14 12:23:37.270 ,4,0,0.,12.0,0.,12.0,0.,12.0,0.,12.0
1980-11-14 13:35:49.270 ,0,0,0.,12.0,0.,12.0,0.,12.0,0.,12.0
1980-11-14 13:36:01.270 ,0,0,0.,12.0,0.,12.0,0.,12.0,0.,12.0
1980-11-14 13:36:13.270 ,0,0,0.,12.0,0.,12.0,0.,12.0,0.,12.0
1980-11-14 13:36:25.270 ,0,0,0.,12.0,0.,12.0,0.,12.0,0.,12.0
1980-11-14 13:36:37.270 ,0,1,0.,12.0,0.,12.0,0.,12.0,0.,12.0
1980-11-14 13:36:49.270 ,0,1,0.,12.0,0.,12.0,0.,12.0,0.,12.0
1980-11-14 13:37:01.270 ,0,0,0.,12.0,0.,12.0,0.,12.0,0.,12.0
1980-11-14 13:37:13.270 ,0,0,0.,12.0,0.,12.0,0.,12.0,0.,12.0
1980-11-14 13:37:25.270 ,1,1,0.,12.0,0.,12.0,0.,12.0,0.,12.0
1980-11-14 13:37:37.270 ,1,1,0.,12.0,0.,12.0,0.,12.0,0.,12.0
1980-11-14 13:37:49.270 ,1,0,0.,12.0,0.,12.0,0.,12.0,0.,12.0
1980-11-14 13:38:01.270 ,1,0,0.,12.0,0.,12.0,0.,12.0,0.,12.0
1980-11-14 13:38:13.270 ,2,1,0.,12.0,0.,12.0,0.,12.0,0.,12.0
1980-11-14 13:38:25.270 ,2,1,0.,12.0,0.,12.0,0.,12.0,0.,12.0
1980-11-14 13:38:37.270 ,2,0,0.,12.0,0.,12.0,0.,12.0,0.,12.0
1980-11-14 13:38:49.270 ,2,0,0.,12.0,0.,12.0,0.,12.0,0.,12.0
1980-11-14 13:39:01.270 ,3,1,0.,12.0,0.,12.0,0.,12.0,0.,12.0
1980-11-14 13:39:13.270 ,3,1,0.,12.0,0.,12.0,0.,12.0,0.,12.0
1980-11-14 13:39:25.270 ,3,0,0.,12.0,0.,12.0,0.,12.0,0.,12.0
1980-11-14 13:39:37.270 ,3,0,0.,12.0,0.,12.0,0.,12.0,0.,12.0
1980-11-14 13:39:49.270 ,4,1,0.,12.0,0.,12.0,0.,12.0,0.,12.0
1980-11-14 13:40:01.270 ,4,1,0.,12.0,0.,12.0,0.,12.0,0.,12.0
1980-11-14 13:40:13.270 ,4,0,0.,12.0,0.,12.0,0.,12.0,0.,12.0
1980-11-14 13:40:25.270 ,4,0,0.,12.0,0.,12.0,0.,12.0,0.,12.0
1980-11-14 13:40:37.270 ,5,1,0.,12.0,0.,12.0,0.,12.0,0.,12.0
1980-11-14 13:40:49.270 ,5,1,0.,12.0,0.,12.0,0.,12.0,0.,12.0
1980-11-14 13:41:01.270 ,5,0,0.,12.0,0.,12.0,0.,12.0,0.,12.0
1980-11-14 13:41:13.270 ,5,0,0.,12.0,0.,12.0,0.,12.0,0.,12.0
1980-11-14 13:41:25.270 ,6,1,0.,12.0,0.,12.0,0.,12.0,0.,12.0
1980-11-14 13:41:37.270 ,6,1,0.,12.0,0.,12.0,0.,12.0,0.,12.0
1980-11-14 13:41:49.270 ,6,0,0.,12.0,0.,12.0,0.,12.0,0.,12.0
1980-11-14 13:42:01.270 ,6,0,0.,12.0,0.,12.0,0.,12.0,0.,12.0
1980-11-14 13:42:13.270 ,7,1,0.,12.0,0.,12.0,0.,12.0,0.,12.0
1980-11-14 13:42:25.270 ,7,1,0.,12.0,4.,12.0,0.,12.0,0.,12.0
1980-11-14 13:42:37.270 ,7,0,0.,12.0,3.,12.0,0.,12.0,0.,12.0
1980-11-14 13:42:49.270 ,7,0,0.,12.0,4.,12.0,0.,12.0,0.,12.0
1980-11-14 13:43:01.270 ,7,1,0.,12.0,6.,12.0,0.,12.0,0.,12.0
1980-11-14 13:43:13.270 ,7,1,0.,12.0,4.,12.0,0.,12.0,0.,12.0
1980-11-14 13:43:25.270 ,7,0,0.,12.0,4.,12.0,0.,12.0,0.,12.0
1980-11-14 13:43:37.270 ,7,0,0.,12.0,8.,12.0,0.,12.0,0.,12.0
1980-11-14 13:43:49.270 ,6,1,0.,12.0,4.,12.0,0.,12.0,0.,12.0
1980-11-14 13:44:01.270 ,6,1,0.,12.0,4.,12.0,0.,12.0,0.,12.0
1980-11-14 13:44:13.270 ,6,0,0.,12.0,0.,12.0,0.,12.0,0.,12.0
1980-11-14 13:44:25.270 ,6,0,0.,12.0,0.,12.0,0.,12.0,0.,12.0
1980-11-14 13:44:37.270 ,5,1,0.,12.0,0.,12.0,0.,12.0,0.,12.0
1980-11-14 13:44:49.270 ,5,1,0.,12.0,0.,12.0,0.,12.0,0.,12.0
1980-11-14 13:45:01.270 ,5,0,0.,12.0,0.,12.0,0.,12.0,0.,12.0
1980-11-14 13:45:13.270 ,5,0,0.,12.0,0.,12.0,0.,12.0,0.,12.0
1980-11-14 13:45:25.270 ,4,1,0.,12.0,0.,12.0,0.,12.0,0.,12.0
1980-11-14 13:45:37.270 ,4,1,0.,12.0,0.,12.0,0.,12.0,0.,12.0
1980-11-14 13:45:49.270 ,4,0,0.,12.0,0.,12.0,0.,12.0,0.,12.0
1980-11-14 13:46:01.270 ,4,0,0.,12.0,0.,12.0,0.,12.0,0.,12.0
1980-11-14 13:46:13.270 ,3,1,0.,12.0,0.,12.0,0.,12.0,0.,12.0
1980-11-14 13:46:25.270 ,3,1,0.,12.0,0.,12.0,0.,12.0,0.,12.0
1980-11-14 13:46:37.270 ,3,0,0.,12.0,0.,12.0,0.,12.0,0.,12.0
1980-11-14 13:46:49.270 ,3,0,0.,12.0,0.,12.0,0.,12.0,0.,12.0
1980-11-14 13:47:01.270 ,2,1,0.,12.0,0.,12.0,0.,12.0,0.,12.0
1980-11-14 13:47:13.270 ,2,1,0.,12.0,0.,12.0,0.,12.0,0.,12.0
1980-11-14 13:47:25.270 ,2,0,0.,12.0,0.,12.0,0.,12.0,0.,12.0
1980-11-14 13:47:37.270 ,2,0,0.,12.0,0.,12.0,0.,12.0,0.,12.0
1980-11-14 13:47:49.270 ,1,1,0.,12.0,0.,12.0,0.,12.0,0.,12.0
1980-11-14 13:48:01.270 ,1,1,0.,12.0,0.,12.0,0.,12.0,0.,12.0
1980-11-14 13:48:13.270 ,1,0,0.,12.0,0.,12.0,0.,12.0,0.,12.0
1980-11-14 13:48:25.270 ,1,0,0.,12.0,0.,12.0,0.,12.0,0.,12.0
1980-11-14 13:48:37.270 ,0,1,0.,12.0,0.,12.0,0.,12.0,0.,12.0
1980-11-14 13:48:49.270 ,0,1,0.,12.0,0.,12.0,0.,12.0,0.,12.0
1980-11-14 13:49:01.270 ,0,0,0.,12.0,0.,12.0,0.,12.0,0.,12.0
1980-11-14 13:49:13.270 ,0,0,0.,12.0,0.,12.0,0.,12.0,0.,12.0
1980-11-14 13:49:25.270 ,0,1,0.,12.0,0.,12.0,0.,12.0,0.,12.0
1980-11-14 13:49:37.270 ,0,1,0.,12.0,0.,12.0,0.,12.0,0.,12.0
1980-11-14 13:49:49.270 ,0,0,0.,12.0,0.,12.0,0.,12.0,0.,12.0
1980-11-14 13:50:01.270 ,0,0,0.,12.0,0.,12.0,0.,12.0,0.,12.0
1980-11-14 13:50:13.270 ,1,1,0.,12.0,0.,12.0,0.,12.0,0.,12.0
1980-11-14 13:50:25.270 ,1,1,0.,12.0,0.,12.0,0.,12.0,0.,12.0
1980-11-14 13:50:37.270 ,1,0,0.,12.0,0.,12.0,0.,12.0,0.,12.0
1980-11-14 13:50:49.270 ,1,0,0.,12.0,0.,12.0,0.,12.0,0.,12.0
1980-11-14 13:51:01.270 ,2,1,0.,12.0,0.,12.0,0.,12.0,0.,12.0
1980-11-14 13:51:13.270 ,2,1,0.,12.0,0.,12.0,0.,12.0,0.,12.0
1980-11-14 13:51:25.270 ,2,0,0.,12.0,0.,12.0,0.,12.0,0.,12.0
1980-11-14 13:51:37.270 ,2,0,0.,12.0,0.,12.0,0.,12.0,0.,12.0
1980-11-14 13:51:49.270 ,3,1,0.,12.0,0.,12.0,0.,12.0,0.,12.0
1980-11-14 13:52:01.270 ,3,1,0.,12.0,0.,12.0,0.,12.0,0.,12.0
1980-11-14 13:52:13.270 ,3,0,0.,12.0,0.,12.0,0.,12.0,0.,12.0
1980-11-14 13:52:25.270 ,3,0,0.,12.0,0.,12.0,0.,12.0,0.,12.0
1980-11-14 13:52:37.270 ,4,1,0.,12.0,0.,12.0,0.,12.0,0.,12.0
1980-11-14 13:52:49.270 ,4,1,0.,12.0,0.,12.0,0.,12.0,0.,12.0
1980-11-14 13:53:01.270 ,4,0,0.,12.0,0.,12.0,0.,12.0,0.,12.0
1980-11-14 13:53:13.270 ,4,0,0.,12.0,0.,12.0,0.,12.0,0.,12.0
1980-11-14 13:53:25.270 ,5,1,0.,12.0,0.,12.0,0.,12.0,0.,12.0
1980-11-14 13:53:37.270 ,5,1,0.,12.0,0.,12.0,0.,12.0,0.,12.0
1980-11-14 13:53:49.270 ,5,0,0.,12.0,0.,12.0,0.,12.0,0.,12.0
1980-11-14 13:54:01.270 ,5,0,0.,12.0,0.,12.0,0.,12.0,0.,12.0
1980-11-14 13:54:13.270 ,6,1,0.,12.0,0.,12.0,0.,12.0,0.,12.0
1980-11-14 13:54:25.270 ,6,1,0.,12.0,0.,12.0,0.,12.0,0.,12.0
1980-11-14 13:54:37.270 ,6,0,0.,12.0,0.,12.0,0.,12.0,0.,12.0
1980-11-14 13:54:49.270 ,6,0,0.,12.0,0.,12.0,0.,12.0,0.,12.0
1980-11-14 13:55:01.270 ,7,1,0.,12.0,0.,12.0,0.,12.0,0.,12.0
1980-11-14 13:55:13.270 ,7,1,0.,12.0,4.,12.0,0.,12.0,0.,12.0
1980-11-14 13:55:25.270 ,7,0,0.,12.0,3.,12.0,0.,12.0,0.,12.0
1980-11-14 13:55:37.270 ,7,0,0.,12.0,5.,12.0,0.,12.0,0.,12.0
1980-11-14 13:55:49.270 ,7,1,0.,12.0,1.,12.0,0.,12.0,0.,12.0
1980-11-14 13:56:01.270 ,7,1,0.,12.0,3.,12.0,0.,12.0,0.,12.0
1980-11-14 13:56:13.270 ,7,0,0.,12.0,3.,12.0,0.,12.0,0.,12.0
1980-11-14 13:56:25.270 ,7,0,0.,12.0,1.,12.0,0.,12.0,0.,12.0
1980-11-14 13:56:37.270 ,6,1,0.,12.0,7.,12.0,0.,12.0,0.,12.0
1980-11-14 13:56:49.270 ,6,1,0.,12.0,1.,12.0,0.,12.0,0.,12.0
1980-11-14 13:57:01.270 ,6,0,0.,12.0,0.,12.0,0.,12.0,0.,12.0
1980-11-14 13:57:13.270 ,6,0,0.,12.0,0.,12.0,0.,12.0,0.,12.0
1980-11-14 13:57:25.270 ,5,1,0.,12.0,0.,12.0,0.,12.0,0.,12.0
1980-11-14 13:57:37.270 ,5,1,0.,12.0,0.,12.0,0.,12.0,0.,12.0
1980-11-14 13:57:49.270 ,5,0,0.,12.0,0.,12.0,0.,12.0,0.,12.0
1980-11-14 13:58:01.270 ,5,0,0.,12.0,0.,12.0,0.,12.0,0.,12.0
1980-11-14 13:58:13.270 ,4,1,0.,12.0,0.,12.0,0.,12.0,0.,12.0
1980-11-14 13:58:25.270 ,4,1,0.,12.0,0.,12.0,0.,12.0,0.,12.0
1980-11-14 13:58:37.270 ,4,0,0.,12.0,0.,12.0,0.,12.0,0.,12.0
1980-11-14 13:58:49.270 ,4,0,0.,12.0,0.,12.0,0.,12.0,0.,12.0
1980-11-14 13:59:01.270 ,3,1,0.,12.0,0.,12.0,0.,12.0,0.,12.0
1980-11-14 13:59:13.270 ,3,1,0.,12.0,0.,12.0,0.,12.0,0.,12.0
1980-11-14 13:59:25.270 ,3,0,0.,12.0,0.,12.0,0.,12.0,0.,12.0
1980-11-14 13:59:37.270 ,3,0,0.,12.0,0.,12.0,0.,12.0,0.,12.0
1980-11-14 13:59:49.270 ,2,1,0.,12.0,0.,12.0,0.,12.0,0.,12.0
1980-11-14 14:00:01.270 ,2,1,0.,12.0,0.,12.0,0.,12.0,0.,12.0
1980-11-14 14:00:13.270 ,2,0,0.,12.0,0.,12.0,0.,12.0,1.,12.0
1980-11-14 14:00:25.270 ,2,0,0.,12.0,0.,12.0,0.,12.0,0.,12.0
1980-11-14 14:00:37.270 ,1,1,0.,12.0,0.,12.0,0.,12.0,0.,12.0
1980-11-14 14:00:49.270 ,1,1,0.,12.0,0.,12.0,0.,12.0,0.,12.0
1980-11-14 14:01:01.270 ,1,0,0.,12.0,0.,12.0,0.,12.0,0.,12.0
1980-11-14 14:01:13.270 ,1,0,0.,12.0,0.,12.0,0.,12.0,0.,12.0
1980-11-14 14:01:25.270 ,0,1,0.,12.0,0.,12.0,0.,12.0,0.,12.0
1980-11-14 14:01:37.270 ,0,1,0.,12.0,0.,12.0,0.,12.0,0.,12.0
1980-11-14 14:01:49.270 ,0,0,0.,12.0,0.,12.0,0.,12.0,0.,12.0
1980-11-14 14:02:01.270 ,0,0,0.,12.0,0.,12.0,0.,12.0,0.,12.0
1980-11-14 14:02:13.270 ,0,1,0.,12.0,0.,12.0,0.,12.0,0.,12.0
1980-11-14 14:02:25.270 ,0,1,0.,12.0,0.,12.0,0.,12.0,0.,12.0
1980-11-14 14:02:37.270 ,0,0,0.,12.0,0.,12.0,0.,12.0,0.,12.0
1980-11-14 14:02:49.270 ,0,0,0.,12.0,0.,12.0,0.,12.0,0.,12.0
1980-11-14 14:03:01.270 ,1,1,0.,12.0,0.,12.0,0.,12.0,0.,12.0
1980-11-14 14:03:13.270 ,1,1,0.,12.0,0.,12.0,0.,12.0,0.,12.0
1980-11-14 14:03:25.270 ,1,0,0.,12.0,0.,12.0,0.,12.0,0.,12.0
1980-11-14 14:03:37.270 ,1,0,0.,12.0,0.,12.0,0.,12.0,0.,12.0
1980-11-14 14:03:49.270 ,2,1,0.,12.0,0.,12.0,0.,12.0,0.,12.0
1980-11-14 14:04:01.270 ,2,1,0.,12.0,0.,12.0,0.,12.0,0.,12.0
1980-11-14 14:04:13.270 ,2,0,0.,12.0,0.,12.0,0.,12.0,0.,12.0
1980-11-14 14:04:25.270 ,2,0,0.,12.0,0.,12.0,0.,12.0,0.,12.0
1980-11-14 14:04:37.270 ,3,1,0.,12.0,0.,12.0,0.,12.0,0.,12.0
1980-11-14 14:04:49.270 ,3,1,0.,12.0,0.,12.0,0.,12.0,0.,12.0
1980-11-14 14:05:01.270 ,3,0,0.,12.0,0.,12.0,0.,12.0,0.,12.0
1980-11-14 14:05:13.270 ,3,0,0.,12.0,0.,12.0,0.,12.0,0.,12.0
1980-11-14 14:05:25.270 ,4,1,0.,12.0,0.,12.0,0.,12.0,0.,12.0
1980-11-14 14:05:37.270 ,4,1,0.,12.0,0.,12.0,0.,12.0,0.,12.0
1980-11-14 14:05:49.270 ,4,0,0.,12.0,0.,12.0,0.,12.0,0.,12.0
1980-11-14 14:06:01.270 ,4,0,0.,12.0,0.,12.0,0.,12.0,0.,12.0
1980-11-14 14:06:13.270 ,5,1,0.,12.0,0.,12.0,0.,12.0,0.,12.0
1980-11-14 14:06:25.270 ,5,1,0.,12.0,0.,12.0,0.,12.0,0.,12.0
1980-11-14 14:06:37.270 ,5,0,0.,12.0,0.,12.0,0.,12.0,0.,12.0
1980-11-14 14:06:49.270 ,5,0,0.,12.0,0.,12.0,0.,12.0,0.,12.0
1980-11-14 14:07:01.270 ,6,1,0.,12.0,0.,12.0,0.,12.0,0.,12.0
1980-11-14 14:07:13.270 ,6,1,0.,12.0,0.,12.0,0.,12.0,0.,12.0
1980-11-14 14:07:25.270 ,6,0,0.,12.0,0.,12.0,0.,12.0,0.,12.0
1980-11-14 14:07:37.270 ,6,0,0.,12.0,0.,12.0,0.,12.0,0.,12.0
1980-11-14 14:07:49.270 ,7,1,0.,12.0,0.,12.0,0.,12.0,0.,12.0
1980-11-14 14:08:01.270 ,7,1,0.,12.0,2.,12.0,0.,12.0,0.,12.0
1980-11-14 14:08:13.270 ,7,0,0.,12.0,2.,12.0,0.,12.0,0.,12.0
1980-11-14 14:08:25.270 ,7,0,0.,12.0,3.,12.0,0.,12.0,0.,12.0
1980-11-14 14:08:37.270 ,7,1,0.,12.0,3.,12.0,0.,12.0,0.,12.0
1980-11-14 14:08:49.270 ,7,1,0.,12.0,4.,12.0,0.,12.0,0.,12.0
1980-11-14 14:09:01.270 ,7,0,0.,12.0,5.,12.0,0.,12.0,0.,12.0
1980-11-14 14:09:13.270 ,7,0,0.,12.0,6.,12.0,0.,12.0,0.,12.0
1980-11-14 14:09:25.270 ,6,1,0.,12.0,7.,12.0,0.,12.0,0.,12.0
1980-11-14 14:09:37.270 ,6,1,0.,12.0,0.,12.0,0.,12.0,0.,12.0
1980-11-14 14:09:49.270 ,6,0,0.,12.0,0.,12.0,0.,12.0,0.,12.0
1980-11-14 14:10:01.270 ,6,0,0.,12.0,0.,12.0,0.,12.0,0.,12.0
1980-11-14 14:10:13.270 ,5,1,0.,12.0,0.,12.0,0.,12.0,0.,12.0
1980-11-14 14:10:25.270 ,5,1,0.,12.0,0.,12.0,0.,12.0,0.,12.0
1980-11-14 14:10:37.270 ,5,0,0.,12.0,0.,12.0,0.,12.0,0.,12.0
1980-11-14 14:10:49.270 ,5,0,0.,12.0,0.,12.0,0.,12.0,0.,12.0
1980-11-14 14:11:01.270 ,4,1,0.,12.0,0.,12.0,0.,12.0,0.,12.0
1980-11-14 14:11:13.270 ,4,1,0.,12.0,0.,12.0,0.,12.0,0.,12.0
1980-11-14 14:11:25.270 ,4,0,0.,12.0,0.,12.0,0.,12.0,0.,12.0
1980-11-14 14:11:37.270 ,4,0,0.,12.0,0.,12.0,0.,12.0,0.,12.0
1980-11-14 14:11:49.270 ,3,1,0.,12.0,0.,12.0,0.,12.0,0.,12.0
1980-11-14 14:12:01.270 ,3,1,0.,12.0,0.,12.0,0.,12.0,0.,12.0
1980-11-14 14:12:13.270 ,3,0,0.,12.0,0.,12.0,0.,12.0,0.,12.0
1980-11-14 14:12:25.270 ,3,0,0.,12.0,0.,12.0,0.,12.0,0.,12.0
1980-11-14 14:12:37.270 ,2,1,0.,12.0,0.,12.0,0.,12.0,0.,12.0
1980-11-14 14:12:49.270 ,2,1,0.,12.0,0.,12.0,0.,12.0,0.,12.0
1980-11-14 14:13:01.270 ,2,0,0.,12.0,0.,12.0,0.,12.0,0.,12.0
1980-11-14 14:13:13.270 ,2,0,0.,12.0,0.,12.0,0.,12.0,0.,12.0
1980-11-14 14:13:25.270 ,1,1,0.,12.0,0.,12.0,0.,12.0,0.,12.0
1980-11-14 14:13:37.270 ,1,1,0.,12.0,0.,12.0,0.,12.0,0.,12.0
1980-11-14 14:13:49.270 ,1,0,0.,12.0,0.,12.0,0.,12.0,0.,12.0
1980-11-14 14:14:01.270 ,1,0,0.,12.0,0.,12.0,0.,12.0,0.,12.0
1980-11-14 14:14:13.270 ,0,1,0.,12.0,0.,12.0,0.,12.0,0.,12.0
1980-11-14 14:14:25.270 ,0,1,0.,12.0,0.,12.0,0.,12.0,0.,12.0
1980-11-14 14:14:37.270 ,0,0,0.,12.0,0.,12.0,0.,12.0,0.,12.0
1980-11-14 14:14:49.270 ,0,0,0.,12.0,0.,12.0,0.,12.0,0.,12.0
1980-11-14 14:15:01.270 ,0,1,0.,12.0,0.,12.0,0.,12.0,0.,12.0
1980-11-14 14:15:13.270 ,0,1,0.,12.0,0.,12.0,0.,12.0,0.,12.0
1980-11-14 14:15:25.270 ,0,0,0.,12.0,0.,12.0,0.,12.0,0.,12.0
1980-11-14 14:15:37.270 ,0,0,0.,12.0,0.,12.0,0.,12.0,0.,12.0
1980-11-14 14:15:49.270 ,1,1,0.,12.0,0.,12.0,0.,12.0,0.,12.0
1980-11-14 14:16:01.270 ,1,1,0.,12.0,0.,12.0,0.,12.0,0.,12.0
1980-11-14 14:16:13.270 ,1,0,0.,12.0,0.,12.0,0.,12.0,0.,12.0
1980-11-14 14:16:25.270 ,1,0,0.,12.0,0.,12.0,0.,12.0,0.,12.0
1980-11-14 14:16:37.270 ,2,1,0.,12.0,0.,12.0,0.,12.0,0.,12.0
1980-11-14 14:16:49.270 ,2,1,0.,12.0,0.,12.0,0.,12.0,0.,12.0
1980-11-14 14:17:01.270 ,2,0,0.,12.0,0.,12.0,0.,12.0,0.,12.0
1980-11-14 14:17:13.270 ,2,0,0.,12.0,0.,12.0,0.,12.0,0.,12.0
1980-11-14 14:17:25.270 ,3,1,0.,12.0,0.,12.0,0.,12.0,0.,12.0
1980-11-14 14:17:37.270 ,3,1,0.,12.0,0.,12.0,0.,12.0,0.,12.0
1980-11-14 14:17:49.270 ,3,0,0.,12.0,0.,12.0,0.,12.0,0.,12.0
1980-11-14 14:18:01.270 ,3,0,0.,12.0,0.,12.0,0.,12.0,0.,12.0
1980-11-14 14:18:13.270 ,4,1,0.,12.0,0.,12.0,0.,12.0,0.,12.0
1980-11-14 14:18:25.270 ,4,1,0.,12.0,0.,12.0,0.,12.0,0.,12.0
1980-11-14 14:18:37.270 ,4,0,0.,12.0,0.,12.0,0.,12.0,0.,12.0
1980-11-14 14:18:49.270 ,4,0,0.,12.0,0.,12.0,0.,12.0,0.,12.0
1980-11-14 14:19:01.270 ,5,1,0.,12.0,0.,12.0,0.,12.0,0.,12.0
1980-11-14 14:19:13.270 ,5,1,0.,12.0,0.,12.0,0.,12.0,0.,12.0
1980-11-14 14:19:25.270 ,5,0,0.,12.0,0.,12.0,0.,12.0,0.,12.0
1980-11-14 14:19:37.270 ,5,0,0.,12.0,0.,12.0,0.,12.0,0.,12.0
1980-11-14 14:19:49.270 ,6,1,0.,12.0,0.,12.0,0.,12.0,0.,12.0
1980-11-14 14:20:01.270 ,6,1,0.,12.0,0.,12.0,0.,12.0,0.,12.0
1980-11-14 14:20:13.270 ,6,0,0.,12.0,0.,12.0,0.,12.0,0.,12.0
1980-11-14 14:20:25.270 ,6,0,0.,12.0,0.,12.0,0.,12.0,0.,12.0
1980-11-14 14:20:37.270 ,7,1,0.,12.0,0.,12.0,0.,12.0,0.,12.0
1980-11-14 14:20:49.270 ,7,1,0.,12.0,3.,12.0,0.,12.0,0.,12.0
1980-11-14 14:21:01.270 ,7,0,0.,12.0,1.,12.0,0.,12.0,0.,12.0
1980-11-14 14:21:13.270 ,7,0,0.,12.0,6.,12.0,0.,12.0,0.,12.0
1980-11-14 14:21:25.270 ,7,1,0.,12.0,4.,12.0,0.,12.0,0.,12.0
1980-11-14 14:21:37.270 ,7,1,0.,12.0,4.,12.0,0.,12.0,0.,12.0
1980-11-14 14:21:49.270 ,7,0,0.,12.0,3.,12.0,0.,12.0,0.,12.0
1980-11-14 14:22:01.270 ,7,0,0.,12.0,4.,12.0,0.,12.0,0.,12.0
1980-11-14 14:22:13.270 ,6,1,0.,12.0,6.,12.0,0.,12.0,0.,12.0
1980-11-14 14:22:25.270 ,6,1,0.,12.0,4.,12.0,0.,12.0,0.,12.0
1980-11-14 14:22:37.270 ,6,0,0.,12.0,0.,12.0,0.,12.0,0.,12.0
1980-11-14 14:22:49.270 ,6,0,0.,12.0,0.,12.0,0.,12.0,0.,12.0
1980-11-14 14:23:01.270 ,5,1,0.,12.0,0.,12.0,0.,12.0,0.,12.0
1980-11-14 14:23:13.270 ,5,1,0.,12.0,0.,12.0,0.,12.0,0.,12.0
1980-11-14 14:23:25.270 ,5,0,0.,12.0,0.,12.0,0.,12.0,0.,12.0
1980-11-14 14:23:37.270 ,5,0,0.,12.0,0.,12.0,0.,12.0,0.,12.0
1980-11-14 14:23:49.270 ,4,1,0.,12.0,1.,12.0,0.,12.0,0.,12.0
1980-11-14 14:24:01.270 ,4,1,0.,12.0,0.,12.0,0.,12.0,0.,12.0
1980-11-14 14:24:13.270 ,4,0,0.,12.0,0.,12.0,0.,12.0,0.,12.0
1980-11-14 14:24:25.270 ,4,0,0.,12.0,0.,12.0,0.,12.0,0.,12.0
1980-11-14 14:24:37.270 ,3,1,0.,12.0,0.,12.0,0.,12.0,0.,12.0
1980-11-14 14:24:49.270 ,3,1,0.,12.0,0.,12.0,0.,12.0,0.,12.0
1980-11-14 14:25:01.270 ,3,0,0.,12.0,0.,12.0,0.,12.0,0.,12.0
1980-11-14 14:25:13.270 ,3,0,0.,12.0,0.,12.0,0.,12.0,0.,12.0
1980-11-14 14:25:25.270 ,2,1,0.,12.0,0.,12.0,0.,12.0,0.,12.0
1980-11-14 14:25:37.270 ,2,1,0.,12.0,0.,12.0,0.,12.0,0.,12.0
1980-11-14 14:25:49.270 ,2,0,0.,12.0,0.,12.0,0.,12.0,0.,12.0
1980-11-14 14:26:01.270 ,2,0,0.,12.0,0.,12.0,0.,12.0,0.,12.0
1980-11-14 14:26:13.270 ,1,1,0.,12.0,0.,12.0,0.,12.0,0.,12.0
1980-11-14 14:26:25.270 ,1,1,0.,12.0,0.,12.0,0.,12.0,0.,12.0
1980-11-14 14:26:37.270 ,1,0,0.,12.0,0.,12.0,0.,12.0,0.,12.0
1980-11-14 14:26:49.270 ,1,0,0.,12.0,0.,12.0,0.,12.0,0.,12.0
1980-11-14 14:27:01.270 ,0,1,0.,12.0,0.,12.0,0.,12.0,0.,12.0
1980-11-14 14:27:13.270 ,0,1,0.,12.0,0.,12.0,0.,12.0,0.,12.0
1980-11-14 14:27:25.270 ,0,0,0.,12.0,0.,12.0,0.,12.0,0.,12.0
1980-11-14 14:27:37.270 ,0,0,0.,12.0,0.,12.0,0.,12.0,0.,12.0
1980-11-14 14:27:49.270 ,0,1,0.,12.0,0.,12.0,0.,12.0,0.,12.0
1980-11-14 14:28:01.270 ,0,1,0.,12.0,0.,12.0,0.,12.0,0.,12.0
1980-11-14 14:28:13.270 ,0,0,0.,12.0,0.,12.0,0.,12.0,0.,12.0
1980-11-14 14:28:25.270 ,0,0,0.,12.0,0.,12.0,0.,12.0,0.,12.0
1980-11-14 14:28:37.270 ,1,1,0.,12.0,0.,12.0,0.,12.0,0.,12.0
1980-11-14 14:28:49.270 ,1,1,0.,12.0,0.,12.0,0.,12.0,0.,12.0
1980-11-14 14:29:01.270 ,1,0,0.,12.0,0.,12.0,0.,12.0,0.,12.0
1980-11-14 14:29:13.270 ,1,0,0.,12.0,0.,12.0,0.,12.0,0.,12.0